Regional Weather Roundup
Issued by NWS Sterling, VA

Home | Current Version | Previous Version | Graphics & Text | Print | Product List | Glossary On
Versions: 1 2 3 4 5 6 7 8 9 10 11 12 13 14 15 16 17 18 19 20 21 22 23 24 25 26 27 28 29 30 31 32 33 34 35 36 37 38 39 40 41 42 43 44 45 46 47 48 49 50
000
ASUS41 KLWX 230710
RWRLWX

REGIONAL WEATHER ROUNDUP
NATIONAL WEATHER SERVICE BALTIMORE MD/WASHINGTON DC
300 AM EDT SAT MAY 23 2015

Note: "FAIR" indicates few or no clouds below 12,000 feet
with no significant weather and/or obstructions to visibility.
 TC=TEMPERATURE CELSIUS

 * =Non NWS site. Station does not report precipitation (e.g. rain,
    snow, etc.), thunder, or fog.

DCZ001-MDZ009-015-VAZ040>042-051-053>054-230800-
WASHINGTON METRO

CITY           SKY/WX    TMP DP  RH WIND       PRES   REMARKS
WASHINGTON NAT CLEAR     61  29  29 NW10G18   30.31R
DULLES         CLEAR     54  31  41 NW7       30.33R
ANDREWS AFB    CLEAR     58  32  37 N8        30.30R
FT BELVOIR     CLEAR     60  31  34 NW9       30.32R
QUANTICO       MOCLDY    62  30  29 N16G23    30.32R
COLLEGE PARK*  CLEAR     57  30  35 N3        30.31R
LEESBURG*      CLEAR     54  34  47 NW6       30.33R
MANASSAS*      CLEAR     55  34  44 NW8       30.33R
GAITHERSBURG*  CLEAR     46  30  53 NW7       30.35R

$$

MDZ006>007-011-014-230800-
BALTIMORE METRO

CITY           SKY/WX    TMP DP  RH WIND       PRES   REMARKS
BWI AIRPORT    PTCLDY    53  31  42 NW6       30.30R
MD SCIENCE CTR   N/A     59  26  28 MISG      30.30R
MARTIN STATE   CLEAR     52  32  46 NW5       30.31R
ANNAPOLIS      CLEAR     60  33  36 NW9       30.29R
FORT MEADE*    CLEAR     48  37  66 NW3       30.33R

$$

MDZ012-015-019>023-230800-
MARYLAND EASTERN SHORE

CITY           SKY/WX    TMP DP  RH WIND       PRES   REMARKS
OCEAN CITY     CLEAR     60  43  53 N12       30.25R
SALISBURY      CLEAR     60  37  42 N9        30.26R
BAY BRIDGE AP*   N/A    N/A N/A N/A NW12      30.29R
CAMBRIDGE*     CLEAR     63  34  34 N10       30.27R
EASTON*        CLEAR     59  36  41 N5        30.32R

$$

MDZ017>025-230800-
SOUTHERN MARYLAND

CITY           SKY/WX    TMP DP  RH WIND       PRES   REMARKS
PATUXENT RIVER PTCLDY    62  37  39 NW10      30.27R
ST INIGOES     PTCLDY    62  46  55 CALM      30.27R
LEONARDTOWN*   PTCLDY    61  36  39 NW5       30.29R

$$

MDZ003>005-230800-
NORTH CENTRAL MARYLAND

CITY           SKY/WX    TMP DP  RH WIND       PRES   REMARKS
FREDERICK*     CLEAR     46  34  61 CALM      30.35R
HAGERSTOWN APT CLEAR     49  26  41 CALM      30.32R
WESTMINSTER*   CLEAR     52  27  37 NW5       30.30R

$$

MDZ501>502-230800-
WESTERN MARYLAND

CITY           SKY/WX    TMP DP  RH WIND       PRES   REMARKS
OAKLAND*       FAIR      41  21  45 CALM      30.34R
CUMBERLAND*    FAIR      45  30  57 CALM      30.39R

$$

VAZ025>031-230800-
SHENANDOAH VALLEY

CITY           SKY/WX    TMP DP  RH WIND       PRES   REMARKS
WINCHESTER*    CLEAR     50  28  43 CALM      30.34R
FRONT ROYAL*   FAIR      54  32  43 CALM      30.34R
LURAY*         CLOUDY    59  37  44 NE5       30.34R
NEW MARKET*    CLOUDY    55  41  58 NE6       30.34R
STAUNTON*      PTCLDY    55  44  67 N3        30.34R
WAYNESBORO*    FAIR      54  42  64 NW7       30.31S

$$

WVZ021-048>050-054>055-230800-
EASTERN WEST VIRGINIA PANHANDLE

CITY           SKY/WX    TMP DP  RH WIND       PRES   REMARKS
MARTINSBURG    CLEAR     51  24  34 NW7       30.34R
PETERSBURG*    MOCLDY    50  38  63 CALM      30.37R

$$

VAZ036>039-050-230800-
CENTRAL FOOTHILLS

CITY           SKY/WX    TMP DP  RH WIND       PRES   REMARKS
CHARLOTTESVILL CLEAR     54  44  69 N6        30.29R
CULPEPER*      CLEAR     56  36  46 N9G17     30.33R
ORANGE*        CLEAR     59  46  63 NW8G16    30.32R
GORDONSVILLE*  FAIR      50  47  88 CALM      30.30R
WARRENTON*     FAIR      58  42  55 N7        30.32R

$$

VAZ055>057-230800-
NORTH AND CENTRAL PIEDMONT

CITY           SKY/WX    TMP DP  RH WIND       PRES   REMARKS
FREDERICKSBRG* CLEAR     61  49  65 N5        30.30R
STAFFORD*      CLEAR     57  44  61 N12       30.35R

$$

NCZ024-NYZ072-PAZ021-071-VAZ022-071-230800-
OTHER REGIONAL OBSERVATIONS

CITY           SKY/WX    TMP DP  RH WIND       PRES   REMARKS
NEW YORK CITY  CLEAR     54  23  30 VRB7      30.26R
PHILADELPHIA   PTCLDY    59  30  33 NW13      30.27R
PITTSBURGH     PTCLDY    43  33  68 CALM      30.34R
ROANOKE        PTCLDY    51  44  77 CALM      30.34R
RICHMOND       CLEAR     56  48  74 CALM      30.28R
RALEIGH        PTCLDY    50  48  93 CALM      30.30R

$$

ANZ530>537-230800-
MARINE OBSERVATIONS

STATION/POSITION TIME  TEMP    WIND        PRES
                       AIR SEA DIR/SP/G
                 (UTC) (F)     (DEG/KT/KT) (MB)
THOMAS PT LIGHT  0700   60 64  320/ 12/ 13 1026.3R
BALT KEY BRIDGE  0600   62     320/ 15/ 18 1024.3R
LEWISETTA        0600   63 69              1024.2R
SOLOMONS ISLAND  0600      68                N/A
PINEY POINT      0600          350/ 12/ 13   N/A

$$



USA.gov is the U.S. government's official web portal to all federal, state and local government web resources and services.